Weather History for KAPC - October, 2014

Change the Weather History Date:

Monday, October 27, 2014

  Actual Average Record
Temperature  
Mean Temperature 54 °F 56 °F  
Max Temperature 71 °F 71 °F 90 °F (2003)
Min Temperature 37 °F 41 °F 32 °F (2011)
Degree Days  
Heating Degree Days 11    
Month to date heating degree days 94  
Since 1 July heating degree days 138  
Cooling Degree Days 0    
Month to date cooling degree days 31  
Year to date cooling degree days 267  
Growing Degree Days 4 (Base 50)    
Moisture  
Dew Point 44 °F    
Average Humidity 69    
Maximum Humidity 100    
Minimum Humidity 37    
Precipitation  
Precipitation 0.00 in - 2.15 in (1941)
Month to date precipitation 0.44  
Year to date precipitation 9.09  
Since 1 July precipitation 0.82  
Sea Level Pressure  
Sea Level Pressure 30.02 in    
Wind  
Wind Speed 3 mph (South)    
Max Wind Speed 12 mph    
Max Gust Speed 16 mph    
Visibility 9 miles    
Events      
T = Trace of Precipitation, MM = Missing Value Source: NWS Daily Summary

Daily Weather History Graph

Daily Weather History Graph

Search for Another Location

Airport or City:

Trip Planner

Search our weather history database for the weather conditions in past years. The results will help you decide how hot, cold, wet, or windy it might be!

Date:

Astronomy

Oct. 27, 2014 Rise Set
Actual Time 7:30 AM PDT 6:15 PM PDT
Civil Twilight 7:02 AM PDT 6:42 PM PDT
Nautical Twilight 6:31 AM PDT 7:13 PM PDT
Astronomical Twilight 6:01 AM PDT 7:44 PM PDT
Moon 11:08 AM PDT (10/27) 9:28 PM PDT (10/27)
Length of Visible Light 11h 39m
Length of Day
10h 45m
Waxing Crescent, 16% of the Moon is Illuminated
Oct 27
Waxing Crescent
Oct 30
First Quarter
Nov 6
Full
Nov 14
Last Quarter
Nov 22
New

Hourly Weather History & Observations

Time (PDT) Temp. Windchill Dew Point Humidity Pressure Visibility Wind Dir Wind Speed Gust Speed Precip Events Conditions
12:54 AM 44.1 °F 42.5 °F 43.0 °F 96% 30.03 in 10.0 mi East 3.5 mph - N/A   Clear
1:54 AM 45.0 °F - 43.0 °F 93% 30.03 in 10.0 mi Calm Calm - N/A   Clear
2:54 AM 39.0 °F 35.7 °F 39.0 °F 100% 30.03 in 10.0 mi ESE 4.6 mph - N/A   Clear
3:54 AM 39.0 °F - 39.0 °F 100% 30.02 in 7.0 mi Calm Calm - N/A   Clear
4:00 AM 41.0 °F 38.0 °F 41.0 °F 100% 30.04 in 1.8 mi NW 4.6 mph - N/A   Clear
4:09 AM 42.1 °F - 42.1 °F 100% 30.04 in 3.0 mi Calm Calm - N/A   Clear
4:54 AM 43.0 °F - 43.0 °F 100% 30.01 in 8.0 mi Calm Calm - N/A   Clear
5:54 AM 43.0 °F - 43.0 °F 100% 30.02 in 10.0 mi Calm Calm - N/A   Clear
6:54 AM 39.9 °F - 39.9 °F 100% 30.03 in 9.0 mi Calm Calm - N/A   Partly Cloudy
7:03 AM 39.9 °F - 39.9 °F 100% 30.05 in 1.8 mi Calm Calm - N/A   Partly Cloudy
7:15 AM 41.0 °F 39.0 °F 41.0 °F 100% 30.05 in 3.0 mi NNE 3.5 mph - N/A   Partly Cloudy
7:54 AM 39.9 °F - 39.9 °F 100% 30.03 in 10.0 mi Calm Calm - N/A   Clear
8:54 AM 48.9 °F - 46.9 °F 93% 30.05 in 10.0 mi NNW 4.6 mph - N/A   Clear
9:54 AM 54.0 °F - 48.0 °F 80% 30.05 in 10.0 mi Calm Calm - N/A   Clear
10:54 AM 57.0 °F - 46.9 °F 69% 30.05 in 10.0 mi Calm Calm - N/A   Clear
11:54 AM 63.0 °F - 46.0 °F 54% 30.04 in 10.0 mi Calm Calm - N/A   Clear
12:54 PM 64.9 °F - 48.0 °F 54% 30.01 in 10.0 mi SSW 5.8 mph - N/A   Clear
1:54 PM 66.9 °F - 46.0 °F 47% 29.99 in 10.0 mi SSW 9.2 mph - N/A   Clear
2:54 PM 70.0 °F - 44.1 °F 39% 29.98 in 10.0 mi SSW 9.2 mph - N/A   Clear
3:54 PM 70.0 °F - 43.0 °F 38% 29.98 in 10.0 mi South 8.1 mph - N/A   Clear
4:54 PM 68.0 °F - 46.0 °F 45% 29.97 in 10.0 mi South 10.4 mph - N/A   Clear
5:54 PM 64.0 °F - 52.0 °F 65% 29.98 in 10.0 mi SSW 8.1 mph - N/A   Clear
6:54 PM 59.0 °F - 48.9 °F 69% 29.99 in 10.0 mi West 5.8 mph - N/A   Clear
7:54 PM 53.1 °F - 46.9 °F 80% 30.00 in 10.0 mi SE 3.5 mph - N/A   Clear
8:54 PM 51.1 °F - 46.9 °F 86% 30.01 in 10.0 mi SE 4.6 mph - N/A   Clear
9:54 PM 52.0 °F - 48.0 °F 86% 30.02 in 10.0 mi SE 3.5 mph - N/A   Clear
10:54 PM 48.9 °F - 46.0 °F 90% 30.03 in 10.0 mi North 3.5 mph - N/A   Clear
11:54 PM 45.0 °F - 44.1 °F 97% 30.03 in 10.0 mi Calm Calm - N/A   Clear